VIR13N EGKK-KJFK

Flight info

Callsign VIR13N
Flight time N/A
Altitude 38000
Route IMVUR N63 SAM N19 ADKIK DCT MOPAT DCT MALOT/M080F380 NATD RIKAL/N0472F400 N572A TOPPS DCT ENE PARCH4
Aircraft A343/H-SDE2E3FGHIJ4J5M1RWXY/LB1D1

Departure

Time 2026-05-04 10:56
Airport London Gatwick Airport (EGKK)

Arrival

Time N/A
Airport John F. Kennedy International Airport (KJFK)
Time Latitude Longitude Altitude Speed Heading
2026-05-04 10:21 51.15609 -0.16785 207 ft 0 kts 168°
2026-05-04 10:37 51.15622 -0.16787 217 ft 4 kts 176°
2026-05-04 10:37 51.15649 -0.16790 215 ft 4 kts 189°
2026-05-04 10:37 51.15673 -0.16776 215 ft 4 kts 222°
2026-05-04 10:39 51.15685 -0.16747 207 ft 0 kts 257°
2026-05-04 10:41 51.15685 -0.16748 207 ft 1 kts 257°
2026-05-04 10:41 51.15680 -0.16785 216 ft 6 kts 257°
2026-05-04 10:42 51.15666 -0.16877 214 ft 11 kts 257°
2026-05-04 10:42 51.15648 -0.17005 216 ft 12 kts 257°
2026-05-04 10:42 51.15630 -0.17135 218 ft 12 kts 258°
2026-05-04 10:42 51.15613 -0.17264 214 ft 12 kts 258°
2026-05-04 10:43 51.15592 -0.17390 216 ft 12 kts 254°
2026-05-04 10:44 51.15244 -0.17860 219 ft 19 kts 258°
2026-05-04 10:45 51.15214 -0.18078 216 ft 21 kts 257°
2026-05-04 10:45 51.15184 -0.18308 219 ft 21 kts 259°
2026-05-04 10:45 51.15155 -0.18538 215 ft 21 kts 259°
2026-05-04 10:45 51.15124 -0.18766 214 ft 21 kts 257°
2026-05-04 10:46 51.15094 -0.18982 220 ft 19 kts 256°
2026-05-04 10:46 51.15077 -0.19110 212 ft 2 kts 258°
2026-05-04 10:46 51.15074 -0.19132 218 ft 3 kts 258°
2026-05-04 10:46 51.15069 -0.19179 214 ft 7 kts 260°
2026-05-04 10:47 51.15042 -0.19260 212 ft 9 kts 205°
2026-05-04 10:47 51.14976 -0.19259 219 ft 9 kts 192°
2026-05-04 10:47 51.14949 -0.19353 216 ft 13 kts 256°
2026-05-04 10:47 51.14923 -0.19537 219 ft 19 kts 257°
2026-05-04 10:49 51.14723 -0.20991 215 ft 18 kts 257°
2026-05-04 10:49 51.14698 -0.21171 210 ft 11 kts 257°
2026-05-04 10:50 51.14694 -0.21219 218 ft 0 kts 260°
2026-05-04 10:51 51.14635 -0.21326 211 ft 0 kts 172°
2026-05-04 10:54 51.14528 -0.21240 220 ft 8 kts 131°
2026-05-04 10:54 51.14517 -0.21190 217 ft 0 kts 83°
2026-05-04 10:56 51.15296 -0.15519 954 ft 149 kts 76°
2026-05-04 10:56 51.15524 -0.13917 1397 ft 151 kts 77°
2026-05-04 10:56 51.15764 -0.12230 1680 ft 165 kts 77°
2026-05-04 10:57 51.16033 -0.10361 1821 ft 182 kts 77°
2026-05-04 10:57 51.16327 -0.08320 1991 ft 199 kts 77°
2026-05-04 10:57 51.16769 -0.06125 2205 ft 215 kts 55°
2026-05-04 10:57 51.17974 -0.04768 2630 ft 223 kts 13°
2026-05-04 10:58 51.19534 -0.04885 2898 ft 226 kts 345°
2026-05-04 10:58 51.21031 -0.05744 2986 ft 231 kts 332°
2026-05-04 10:58 51.22223 -0.07424 2998 ft 231 kts 303°
2026-05-04 10:58 51.22715 -0.09848 3171 ft 236 kts 272°
2026-05-04 10:59 51.22542 -0.12531 3436 ft 251 kts 259°
2026-05-04 10:59 51.22196 -0.15320 3912 ft 259 kts 258°
2026-05-04 10:59 51.21845 -0.18156 4541 ft 262 kts 259°
2026-05-04 10:59 51.21498 -0.21032 5151 ft 265 kts 259°
2026-05-04 11:00 51.21154 -0.23937 5773 ft 268 kts 259°
2026-05-04 11:01 51.18587 -0.44758 9925 ft 280 kts 257°
2026-05-04 11:02 51.18185 -0.47803 10437 ft 282 kts 257°
2026-05-04 11:02 51.17787 -0.50823 10931 ft 284 kts 257°